| time (UTC) | temp F | wind direction | speed knots | gust knots | rain 1hr in | rain 24hr in | rain mn in | humidity % | barometer mb |
| 20260510010804 | 68 | 0.0 | 0.0 | 0.00 | 0.00 | 0.00 | 37 | ||
| 20260510003804 | 68 | 0.0 | 0.0 | 0.00 | 0.00 | 0.00 | 37 | ||
| 20260510000804 | 69 | 0.0 | 0.0 | 0.00 | 0.00 | 0.00 | 40 | ||
| 20260509233804 | 68 | 0.0 | 0.0 | 0.00 | 0.00 | 0.00 | 40 | ||
| 20260509230803 | 66 | 0.0 | 0.0 | 0.00 | 0.00 | 0.00 | 41 | ||
| 20260509223805 | 63 | 0.0 | 0.0 | 0.00 | 0.00 | 0.00 | 44 | ||
| 20260509220806 | 60 | 0.0 | 0.0 | 0.00 | 0.00 | 0.00 | 54 | ||
| 20260509213805 | 57 | 0.0 | 0.0 | 0.00 | 0.00 | 0.00 | 57 | ||
| 20260509210805 | 55 | 0.0 | 0.0 | 0.00 | 0.00 | 0.00 | 68 | ||
| 20260509203804 | 54 | 0.0 | 0.0 | 0.00 | 0.00 | 0.00 | 70 | ||
| 20260509200806 | 54 | 0.0 | 0.0 | 0.00 | 0.00 | 0.00 | 71 | ||
| 20260509193804 | 54 | 0.0 | 0.0 | 0.00 | 0.00 | 0.00 | 70 | ||
| 20260509190806 | 54 | 0.0 | 0.0 | 0.00 | 0.00 | 0.00 | 69 | ||
| 20260509183804 | 54 | 0.0 | 0.0 | 0.00 | 0.00 | 0.00 | 66 | ||
| 20260509180804 | 54 | 0.0 | 0.0 | 0.00 | 0.00 | 0.00 | 64 | ||
| 20260509173803 | 55 | 0.0 | 0.0 | 0.00 | 0.00 | 0.00 | 61 | ||
| 20260509170804 | 56 | 0.0 | 0.0 | 0.00 | 0.00 | 0.00 | 58 | ||
| 20260509163806 | 56 | 0.0 | 0.0 | 0.00 | 0.00 | 0.00 | 58 | ||
| 20260509160803 | 56 | 0.0 | 0.0 | 0.00 | 0.00 | 0.00 | 56 | ||
| 20260509153806 | 57 | 0.0 | 0.0 | 0.00 | 0.00 | 0.00 | 53 | ||
| 20260509150806 | 57 | 0.0 | 0.0 | 0.00 | 0.00 | 0.00 | 51 | ||
| 20260509143805 | 58 | 0.0 | 0.0 | 0.00 | 0.00 | 0.00 | 50 | ||
| 20260509140805 | 59 | 0.0 | 0.0 | 0.00 | 0.00 | 0.00 | 47 | ||
| 20260509133805 | 59 | 0.0 | 0.0 | 0.00 | 0.00 | 0.00 | 44 | ||
| 20260509130806 | 60 | 0.0 | 0.0 | 0.00 | 0.00 | 0.00 | 43 | ||
| 20260509123803 | 62 | 0.0 | 0.0 | 0.00 | 0.00 | 0.00 | 42 | ||
| 20260509120806 | 63 | 0.0 | 0.0 | 0.00 | 0.00 | 0.00 | 41 | ||
| 20260509113805 | 64 | 0.0 | 0.0 | 0.00 | 0.00 | 0.00 | 41 | ||
| 20260509110806 | 65 | 0.0 | 0.0 | 0.00 | 0.00 | 0.00 | 40 | ||
| 20260509103806 | 67 | 0.0 | 0.0 | 0.00 | 0.00 | 0.00 | 37 | ||
| 20260509100805 | 71 | 0.0 | 0.0 | 0.00 | 0.00 | 0.00 | 32 | ||
| 20260509093804 | 74 | 0.0 | 0.0 | 0.00 | 0.00 | 0.00 | 28 | ||
| 20260509090806 | 75 | 0.0 | 0.0 | 0.00 | 0.00 | 0.00 | 25 | ||
| 20260509083806 | 76 | 0.0 | 0.0 | 0.00 | 0.00 | 0.00 | 25 | ||
| 20260509080805 | 78 | 0.0 | 0.0 | 0.00 | 0.00 | 0.00 | 23 | ||
| 20260509073806 | 79 | 0.0 | 0.0 | 0.00 | 0.00 | 0.00 | 24 | ||
| 20260509070806 | 77 | 0.0 | 0.0 | 0.00 | 0.00 | 0.00 | 25 | ||
| 20260509063803 | 76 | 0.0 | 0.0 | 0.00 | 0.00 | 0.00 | 25 | ||
| 20260509060805 | 76 | 0.0 | 0.0 | 0.00 | 0.00 | 0.00 | 27 | ||
| 20260509053806 | 75 | 0.0 | 0.0 | 0.00 | 0.00 | 0.00 | 28 | ||
| 20260509050804 | 75 | 0.0 | 0.0 | 0.00 | 0.00 | 0.00 | 29 | ||
| 20260509043804 | 75 | 0.0 | 0.0 | 0.00 | 0.00 | 0.00 | 31 | ||
| 20260509040805 | 74 | 0.0 | 0.0 | 0.00 | 0.00 | 0.00 | 31 | ||
| 20260509033804 | 73 | 0.0 | 0.0 | 0.00 | 0.00 | 0.00 | 33 | ||
| 20260509030803 | 72 | 0.0 | 0.0 | 0.00 | 0.00 | 0.00 | 36 | ||
| 20260509023804 | 71 | 0.0 | 0.0 | 0.00 | 0.00 | 0.00 | 35 |